Location: Chaumontel
(49.1247°N, 2.4324°E)
Time: 23:57:18
(UTC+00:00)

CZ-4B DEB - Pass Details

Date: 03 February 2023
Orbit: 839 x 859 km, 99.1° (Epoch: 01 April)

Event Time Altitude Azimuth Distance (km) Brightness Sun altitude
Rises 17:46:58 0° 154° (SSE) 3,381 7.2 -9.6°
Reaches altitude 10° 17:49:20 10° 151° (SSE) 2,451 6.5 -10.0°
Maximum altitude 17:54:43 67° 70° (ENE) 913 4.2 -10.9°
Drops below altitude 10° 18:00:09 10° 349° (N) 2,477 6.6 -11.7°
Sets 18:02:32 0° 347° (NNW) 3,419 7.4 -12.1°
